Year,Month,Day,Hour,Minute,Value (Times are PST for temperature in C)
2022,07,25,00,00,15.90
2022,07,25,00,01,15.90
2022,07,25,00,02,15.80
2022,07,25,00,03,15.80
2022,07,25,00,04,15.80
2022,07,25,00,05,15.80
2022,07,25,00,06,15.70
2022,07,25,00,07,15.70
2022,07,25,00,08,15.70
2022,07,25,00,09,15.70
2022,07,25,00,10,15.60
2022,07,25,00,11,15.60
2022,07,25,00,12,15.60
2022,07,25,00,13,15.60
2022,07,25,00,14,15.50
2022,07,25,00,15,15.50
2022,07,25,00,16,15.50
2022,07,25,00,17,15.50
2022,07,25,00,18,15.40
2022,07,25,00,19,15.40
2022,07,25,00,20,15.40
2022,07,25,00,21,15.40
2022,07,25,00,22,15.40
2022,07,25,00,23,15.40
2022,07,25,00,24,15.40
2022,07,25,00,25,15.30
2022,07,25,00,26,15.30
2022,07,25,00,27,15.30
2022,07,25,00,28,15.30
2022,07,25,00,29,15.30
2022,07,25,00,30,15.30
2022,07,25,00,31,15.20
2022,07,25,00,32,15.20
2022,07,25,00,33,15.20
2022,07,25,00,34,15.20
2022,07,25,00,35,15.20
2022,07,25,00,36,15.20
2022,07,25,00,37,15.20
2022,07,25,00,38,15.20
2022,07,25,00,39,15.20
2022,07,25,00,40,15.10
2022,07,25,00,41,15.10
2022,07,25,00,42,15.10
2022,07,25,00,43,15.10
2022,07,25,00,44,15.10
2022,07,25,00,45,15.10
2022,07,25,00,46,15.10
2022,07,25,00,47,15.10
2022,07,25,00,48,15.00
2022,07,25,00,49,15.00
2022,07,25,00,50,15.00
2022,07,25,00,51,15.00
2022,07,25,00,52,15.00
2022,07,25,00,53,14.90
2022,07,25,00,54,14.90
2022,07,25,00,55,14.90
2022,07,25,00,56,14.90
2022,07,25,00,57,14.90
2022,07,25,00,58,14.90
2022,07,25,00,59,14.80
2022,07,25,01,00,14.80
2022,07,25,01,01,14.80
2022,07,25,01,02,14.80
2022,07,25,01,03,14.80
2022,07,25,01,04,14.70
2022,07,25,01,05,14.70
2022,07,25,01,06,14.70
2022,07,25,01,07,14.70
2022,07,25,01,08,14.70
2022,07,25,01,09,14.70
2022,07,25,01,10,14.70
2022,07,25,01,11,14.60
2022,07,25,01,12,14.60
2022,07,25,01,13,14.60
2022,07,25,01,14,14.60
2022,07,25,01,15,14.50
2022,07,25,01,16,14.50
2022,07,25,01,17,14.50
2022,07,25,01,18,14.50
2022,07,25,01,19,14.40
2022,07,25,01,20,14.40
2022,07,25,01,21,14.40
2022,07,25,01,22,14.40
2022,07,25,01,23,14.40
2022,07,25,01,24,14.40
2022,07,25,01,25,14.40
2022,07,25,01,26,14.30
2022,07,25,01,27,14.30
2022,07,25,01,28,14.30
2022,07,25,01,29,14.30
2022,07,25,01,30,14.30
2022,07,25,01,31,14.30
2022,07,25,01,32,14.20
2022,07,25,01,33,14.20
2022,07,25,01,34,14.20
2022,07,25,01,35,14.20
2022,07,25,01,36,14.20
2022,07,25,01,37,14.20
2022,07,25,01,38,14.10
2022,07,25,01,39,14.10
2022,07,25,01,40,14.10
2022,07,25,01,41,14.10
2022,07,25,01,42,14.10
2022,07,25,01,43,14.10
2022,07,25,01,44,14.00
2022,07,25,01,45,14.00
2022,07,25,01,46,14.00
2022,07,25,01,47,14.00
2022,07,25,01,48,14.00
2022,07,25,01,49,14.00
2022,07,25,01,50,13.90
2022,07,25,01,51,13.90
2022,07,25,01,52,13.90
2022,07,25,01,53,13.90
2022,07,25,01,54,13.90
2022,07,25,01,55,13.90
2022,07,25,01,56,13.90
2022,07,25,01,57,13.90
2022,07,25,01,58,13.90
2022,07,25,01,59,13.90
2022,07,25,02,00,13.90
2022,07,25,02,01,13.90
2022,07,25,02,02,13.90
2022,07,25,02,03,13.90
2022,07,25,02,04,13.90
2022,07,25,02,05,13.90
2022,07,25,02,06,13.90
2022,07,25,02,07,13.90
2022,07,25,02,08,13.90
2022,07,25,02,09,13.80
2022,07,25,02,10,13.80
2022,07,25,02,11,13.80
2022,07,25,02,12,13.80
2022,07,25,02,13,13.80
2022,07,25,02,14,13.80
2022,07,25,02,15,13.80
2022,07,25,02,16,13.80
2022,07,25,02,17,13.80
2022,07,25,02,18,13.80
2022,07,25,02,19,13.80
2022,07,25,02,20,13.80
2022,07,25,02,21,13.80
2022,07,25,02,22,13.70
2022,07,25,02,23,13.70
2022,07,25,02,24,13.70
2022,07,25,02,25,13.70
2022,07,25,02,26,13.70
2022,07,25,02,27,13.70
2022,07,25,02,28,13.70
2022,07,25,02,29,13.70
2022,07,25,02,30,13.70
2022,07,25,02,31,13.70
2022,07,25,02,32,13.70
2022,07,25,02,33,13.70
2022,07,25,02,34,13.60
2022,07,25,02,35,13.60
2022,07,25,02,36,13.60
2022,07,25,02,37,13.60
2022,07,25,02,38,13.60
2022,07,25,02,39,13.50
2022,07,25,02,40,13.50
2022,07,25,02,41,13.50
2022,07,25,02,42,13.50
2022,07,25,02,43,13.50
2022,07,25,02,44,13.50
2022,07,25,02,45,13.40
2022,07,25,02,46,13.40
2022,07,25,02,47,13.40
2022,07,25,02,48,13.50
2022,07,25,02,49,13.40
2022,07,25,02,50,13.40
2022,07,25,02,51,13.50
2022,07,25,02,52,13.50
2022,07,25,02,53,13.40
2022,07,25,02,54,13.40
2022,07,25,02,55,13.50
2022,07,25,02,56,13.50
2022,07,25,02,57,13.50
2022,07,25,02,58,13.50
2022,07,25,02,59,13.50
2022,07,25,03,00,13.50
2022,07,25,03,01,13.50
2022,07,25,03,02,13.50
2022,07,25,03,03,13.50
2022,07,25,03,04,13.50
2022,07,25,03,05,13.50
2022,07,25,03,06,13.50
2022,07,25,03,07,13.50
2022,07,25,03,08,13.40
2022,07,25,03,09,13.40
2022,07,25,03,10,13.40
2022,07,25,03,11,13.40
2022,07,25,03,12,13.40
2022,07,25,03,13,13.40
2022,07,25,03,14,13.40
2022,07,25,03,15,13.40
2022,07,25,03,16,13.40
2022,07,25,03,17,13.40
2022,07,25,03,18,13.40
2022,07,25,03,19,13.40
2022,07,25,03,20,13.40
2022,07,25,03,21,13.40
2022,07,25,03,22,13.40
2022,07,25,03,23,13.40
2022,07,25,03,24,13.40
2022,07,25,03,25,13.40
2022,07,25,03,26,13.40
2022,07,25,03,27,13.40
2022,07,25,03,28,13.40
2022,07,25,03,29,13.40
2022,07,25,03,30,13.40
2022,07,25,03,31,13.40
2022,07,25,03,32,13.40
2022,07,25,03,33,13.40
2022,07,25,03,34,13.40
2022,07,25,03,35,13.40
2022,07,25,03,36,13.40
2022,07,25,03,37,13.30
2022,07,25,03,38,13.30
2022,07,25,03,39,13.30
2022,07,25,03,40,13.30
2022,07,25,03,41,13.30
2022,07,25,03,42,13.30
2022,07,25,03,43,13.30
2022,07,25,03,44,13.30
2022,07,25,03,45,13.20
2022,07,25,03,46,13.20
2022,07,25,03,47,13.20
2022,07,25,03,48,13.20
2022,07,25,03,49,13.20
2022,07,25,03,50,13.20
2022,07,25,03,51,13.20
2022,07,25,03,52,13.10
2022,07,25,03,53,13.10
2022,07,25,03,54,13.10
2022,07,25,03,55,13.10
2022,07,25,03,56,13.10
2022,07,25,03,57,13.10
2022,07,25,03,58,13.10
2022,07,25,03,59,13.10
2022,07,25,04,00,13.10
2022,07,25,04,01,13.10
2022,07,25,04,02,13.10
2022,07,25,04,03,13.10
2022,07,25,04,04,13.10
2022,07,25,04,05,13.00
2022,07,25,04,06,13.00
2022,07,25,04,07,13.00
2022,07,25,04,08,13.00
2022,07,25,04,09,12.90
2022,07,25,04,10,12.90
2022,07,25,04,11,12.90
2022,07,25,04,12,12.90
2022,07,25,04,13,12.90
2022,07,25,04,14,12.90
2022,07,25,04,15,12.90
2022,07,25,04,16,12.90
2022,07,25,04,17,12.90
2022,07,25,04,18,12.90
2022,07,25,04,19,12.90
2022,07,25,04,20,12.90
2022,07,25,04,21,12.90
2022,07,25,04,22,12.90
2022,07,25,04,23,12.90
2022,07,25,04,24,12.90
2022,07,25,04,25,12.80
2022,07,25,04,26,12.80
2022,07,25,04,27,12.80
2022,07,25,04,28,12.80
2022,07,25,04,29,12.80
2022,07,25,04,30,12.80
2022,07,25,04,31,12.80
2022,07,25,04,32,12.80
2022,07,25,04,33,12.80
2022,07,25,04,34,12.80
2022,07,25,04,35,12.80
2022,07,25,04,36,12.70
2022,07,25,04,37,12.70
2022,07,25,04,38,12.70
2022,07,25,04,39,12.70
2022,07,25,04,40,12.70
2022,07,25,04,41,12.70
2022,07,25,04,42,12.70
2022,07,25,04,43,12.70
2022,07,25,04,44,12.70
2022,07,25,04,45,12.70
2022,07,25,04,46,12.70
2022,07,25,04,47,12.70
2022,07,25,04,48,12.70
2022,07,25,04,49,12.70
2022,07,25,04,50,12.70
2022,07,25,04,51,12.70
2022,07,25,04,52,12.60
2022,07,25,04,53,12.60
2022,07,25,04,54,12.60
2022,07,25,04,55,12.60
2022,07,25,04,56,12.70
2022,07,25,04,57,12.60
2022,07,25,04,58,12.60
2022,07,25,04,59,12.60
2022,07,25,05,00,12.60
2022,07,25,05,01,12.60
2022,07,25,05,02,12.60
2022,07,25,05,03,12.60
2022,07,25,05,04,12.60
2022,07,25,05,05,12.60
2022,07,25,05,06,12.60
2022,07,25,05,07,12.60
2022,07,25,05,08,12.60
2022,07,25,05,09,12.60
2022,07,25,05,10,12.60
2022,07,25,05,11,12.60
2022,07,25,05,12,12.60
2022,07,25,05,13,12.60
2022,07,25,05,14,12.60
2022,07,25,05,15,12.60
2022,07,25,05,16,12.60
2022,07,25,05,17,12.60
2022,07,25,05,18,12.60
2022,07,25,05,19,12.60
2022,07,25,05,20,12.60
2022,07,25,05,21,12.60
2022,07,25,05,22,12.50
2022,07,25,05,23,12.50
2022,07,25,05,24,12.50
2022,07,25,05,25,12.60
2022,07,25,05,26,12.60
2022,07,25,05,27,12.60
2022,07,25,05,28,12.60
2022,07,25,05,29,12.60
2022,07,25,05,30,12.60
2022,07,25,05,31,12.60
2022,07,25,05,32,12.60
2022,07,25,05,33,12.60
2022,07,25,05,34,12.60
2022,07,25,05,35,12.60
2022,07,25,05,36,12.70
2022,07,25,05,37,12.60
2022,07,25,05,38,12.70
2022,07,25,05,39,12.70
2022,07,25,05,40,12.70
2022,07,25,05,41,12.70
2022,07,25,05,42,12.70
2022,07,25,05,43,12.70
2022,07,25,05,44,12.70
2022,07,25,05,45,12.80
2022,07,25,05,46,12.70
2022,07,25,05,47,12.80
2022,07,25,05,48,12.70
2022,07,25,05,49,12.80
2022,07,25,05,50,12.70
2022,07,25,05,51,12.70
2022,07,25,05,52,12.70
2022,07,25,05,53,12.70
2022,07,25,05,54,12.70
2022,07,25,05,55,12.70
2022,07,25,05,56,12.70
2022,07,25,05,57,12.70
2022,07,25,05,58,12.70
2022,07,25,05,59,12.70
2022,07,25,06,00,12.70
2022,07,25,06,01,12.70
2022,07,25,06,02,12.70
2022,07,25,06,03,12.70
2022,07,25,06,04,12.70
2022,07,25,06,05,12.70
2022,07,25,06,06,12.70
2022,07,25,06,07,12.70
2022,07,25,06,08,12.70
2022,07,25,06,09,12.80
2022,07,25,06,10,12.80
2022,07,25,06,11,12.80
2022,07,25,06,12,12.80
2022,07,25,06,13,12.80
2022,07,25,06,14,12.80
2022,07,25,06,15,12.80
2022,07,25,06,16,12.70
2022,07,25,06,17,12.70
2022,07,25,06,18,12.70
2022,07,25,06,19,12.70
2022,07,25,06,20,12.70
2022,07,25,06,21,12.70
2022,07,25,06,22,12.70
2022,07,25,06,23,12.70
2022,07,25,06,24,12.70
2022,07,25,06,25,12.70
2022,07,25,06,26,12.70
2022,07,25,06,27,12.70
2022,07,25,06,28,12.70
2022,07,25,06,29,12.70
2022,07,25,06,30,12.70
2022,07,25,06,31,12.70
2022,07,25,06,32,12.80
2022,07,25,06,33,12.80
2022,07,25,06,34,12.80
2022,07,25,06,35,12.80
2022,07,25,06,36,12.80
2022,07,25,06,37,12.80
2022,07,25,06,38,12.80
2022,07,25,06,39,12.80
2022,07,25,06,40,12.80
2022,07,25,06,41,12.80
2022,07,25,06,42,12.80
2022,07,25,06,43,12.90
2022,07,25,06,44,12.90
2022,07,25,06,45,12.90
2022,07,25,06,46,12.90
2022,07,25,06,47,12.90
2022,07,25,06,48,12.90
2022,07,25,06,49,13.00
2022,07,25,06,50,13.00
2022,07,25,06,51,13.00
2022,07,25,06,52,13.00
2022,07,25,06,53,13.10
2022,07,25,06,54,13.10
2022,07,25,06,55,13.10
2022,07,25,06,56,13.10
2022,07,25,06,57,13.10
2022,07,25,06,58,13.20
2022,07,25,06,59,13.20
2022,07,25,07,00,13.20
2022,07,25,07,01,13.20
2022,07,25,07,02,13.20
2022,07,25,07,03,13.30
2022,07,25,07,04,13.30
2022,07,25,07,05,13.30
2022,07,25,07,06,13.30
2022,07,25,07,07,13.40
2022,07,25,07,08,13.40
2022,07,25,07,09,13.40
2022,07,25,07,10,13.40
2022,07,25,07,11,13.50
2022,07,25,07,12,13.50
2022,07,25,07,13,13.60
2022,07,25,07,14,13.60
2022,07,25,07,15,13.60
2022,07,25,07,16,13.70
2022,07,25,07,17,13.70
2022,07,25,07,18,13.70
2022,07,25,07,19,13.80
2022,07,25,07,20,13.80
2022,07,25,07,21,13.80
2022,07,25,07,22,13.90
2022,07,25,07,23,13.90
2022,07,25,07,24,13.90
2022,07,25,07,25,14.00
2022,07,25,07,26,14.00
2022,07,25,07,27,14.00
2022,07,25,07,28,14.00
2022,07,25,07,29,14.10
2022,07,25,07,30,14.10
2022,07,25,07,31,14.20
2022,07,25,07,32,14.20
2022,07,25,07,33,14.30
2022,07,25,07,34,14.30
2022,07,25,07,35,14.30
2022,07,25,07,36,14.40
2022,07,25,07,37,14.50
2022,07,25,07,38,14.50
2022,07,25,07,39,14.60
2022,07,25,07,40,14.70
2022,07,25,07,41,14.80
2022,07,25,07,42,14.90
2022,07,25,07,43,14.90
2022,07,25,07,44,15.00
2022,07,25,07,45,15.10
2022,07,25,07,46,15.20
2022,07,25,07,47,15.30
2022,07,25,07,48,15.30
2022,07,25,07,49,15.40
2022,07,25,07,50,15.40
2022,07,25,07,51,15.50
2022,07,25,07,52,15.50
2022,07,25,07,53,15.60
2022,07,25,07,54,15.60
2022,07,25,07,55,15.70
2022,07,25,07,56,15.80
2022,07,25,07,57,15.80
2022,07,25,07,58,15.80
2022,07,25,07,59,15.90
2022,07,25,08,00,15.90
2022,07,25,08,01,16.00
2022,07,25,08,02,16.10
2022,07,25,08,03,16.10
2022,07,25,08,04,16.20
2022,07,25,08,05,16.20
2022,07,25,08,06,16.30
2022,07,25,08,07,16.30
2022,07,25,08,08,16.40
2022,07,25,08,09,16.40
2022,07,25,08,10,16.50
2022,07,25,08,11,16.60
2022,07,25,08,12,16.60
2022,07,25,08,13,16.70
2022,07,25,08,14,16.70
2022,07,25,08,15,16.80
2022,07,25,08,16,16.80
2022,07,25,08,17,16.90
2022,07,25,08,18,17.00
2022,07,25,08,19,17.00
2022,07,25,08,20,17.10
2022,07,25,08,21,17.10
2022,07,25,08,22,17.20
2022,07,25,08,23,17.20
2022,07,25,08,24,17.30
2022,07,25,08,25,17.30
2022,07,25,08,26,17.30
2022,07,25,08,27,17.40
2022,07,25,08,28,17.40
2022,07,25,08,29,17.40
2022,07,25,08,30,17.50
2022,07,25,08,31,17.60
2022,07,25,08,32,17.60
2022,07,25,08,33,17.60
2022,07,25,08,34,17.70
2022,07,25,08,35,17.70
2022,07,25,08,36,17.80
2022,07,25,08,37,17.80
2022,07,25,08,38,17.80
2022,07,25,08,39,17.90
2022,07,25,08,40,17.90
2022,07,25,08,41,17.90
2022,07,25,08,42,18.00
2022,07,25,08,43,18.00
2022,07,25,08,44,18.10
2022,07,25,08,45,18.10
2022,07,25,08,46,18.20
2022,07,25,08,47,18.20
2022,07,25,08,48,18.30
2022,07,25,08,49,18.30
2022,07,25,08,50,18.40
2022,07,25,08,51,18.40
2022,07,25,08,52,18.60
2022,07,25,08,53,18.70
2022,07,25,08,54,18.80
2022,07,25,08,55,18.80
2022,07,25,08,56,19.00
2022,07,25,08,57,19.10
2022,07,25,08,58,19.20
2022,07,25,08,59,19.30
2022,07,25,09,00,19.40
2022,07,25,09,01,19.50
2022,07,25,09,02,19.60
2022,07,25,09,03,19.70
2022,07,25,09,04,19.70
2022,07,25,09,05,19.80
2022,07,25,09,06,19.90
2022,07,25,09,07,20.00
2022,07,25,09,08,20.10
2022,07,25,09,09,20.20
2022,07,25,09,10,20.30
2022,07,25,09,11,20.40
2022,07,25,09,12,20.50
2022,07,25,09,13,20.50
2022,07,25,09,14,20.60
2022,07,25,09,15,20.70
2022,07,25,09,16,20.80
2022,07,25,09,17,20.80
2022,07,25,09,18,20.90
2022,07,25,09,19,21.00
2022,07,25,09,20,21.00
2022,07,25,09,21,21.10
2022,07,25,09,22,21.20
2022,07,25,09,23,21.30
2022,07,25,09,24,21.30
2022,07,25,09,25,21.30
2022,07,25,09,26,21.40
2022,07,25,09,27,21.50
2022,07,25,09,28,21.50
2022,07,25,09,29,21.60
2022,07,25,09,30,21.60
2022,07,25,09,31,21.70
2022,07,25,09,32,21.80
2022,07,25,09,33,21.80
2022,07,25,09,34,21.80
2022,07,25,09,35,21.80
2022,07,25,09,36,21.80
2022,07,25,09,37,21.90
2022,07,25,09,38,21.90
2022,07,25,09,39,21.90
2022,07,25,09,40,22.00
2022,07,25,09,41,22.00
2022,07,25,09,42,22.00
2022,07,25,09,43,22.10
2022,07,25,09,44,22.10
2022,07,25,09,45,22.20
2022,07,25,09,46,22.20
2022,07,25,09,47,22.30
2022,07,25,09,48,22.30
2022,07,25,09,49,22.30
2022,07,25,09,50,22.40
2022,07,25,09,51,22.40
2022,07,25,09,52,22.50
2022,07,25,09,53,22.50
2022,07,25,09,54,22.50
2022,07,25,09,55,22.50
2022,07,25,09,56,22.50
2022,07,25,09,57,22.60
2022,07,25,09,58,22.60
2022,07,25,09,59,22.70
2022,07,25,10,00,22.70
2022,07,25,10,01,22.70
2022,07,25,10,02,22.80
2022,07,25,10,03,22.80
2022,07,25,10,04,22.80
2022,07,25,10,05,22.80
2022,07,25,10,06,22.80
2022,07,25,10,07,22.80
2022,07,25,10,08,22.80
2022,07,25,10,09,22.80
2022,07,25,10,10,22.80
2022,07,25,10,11,22.90
2022,07,25,10,12,22.90
2022,07,25,10,13,22.90
2022,07,25,10,14,22.90
2022,07,25,10,15,23.00
2022,07,25,10,16,23.00
2022,07,25,10,17,23.10
2022,07,25,10,18,23.10
2022,07,25,10,19,23.20
2022,07,25,10,20,23.20
2022,07,25,10,21,23.20
2022,07,25,10,22,23.20
2022,07,25,10,23,23.20
2022,07,25,10,24,23.20
2022,07,25,10,25,23.20
2022,07,25,10,26,23.30
2022,07,25,10,27,23.30
2022,07,25,10,28,23.30
2022,07,25,10,29,23.30
2022,07,25,10,30,23.30
2022,07,25,10,31,23.40
2022,07,25,10,32,23.40
2022,07,25,10,33,23.40
2022,07,25,10,34,23.40
2022,07,25,10,35,23.40
2022,07,25,10,36,23.40
2022,07,25,10,37,23.50
2022,07,25,10,38,23.50
2022,07,25,10,39,23.50
2022,07,25,10,40,23.60
2022,07,25,10,41,23.70
2022,07,25,10,42,23.70
2022,07,25,10,43,23.80
2022,07,25,10,44,23.90
2022,07,25,10,45,23.90
2022,07,25,10,46,23.90
2022,07,25,10,47,24.00
2022,07,25,10,48,24.00
2022,07,25,10,49,24.10
2022,07,25,10,50,24.20
2022,07,25,10,51,24.30
2022,07,25,10,52,24.40
2022,07,25,10,53,24.40
2022,07,25,10,54,24.50
2022,07,25,10,55,24.60
2022,07,25,10,56,24.70
2022,07,25,10,57,24.70
2022,07,25,10,58,24.80
2022,07,25,10,59,24.90
2022,07,25,11,00,25.00
2022,07,25,11,01,25.10
2022,07,25,11,02,25.10
2022,07,25,11,03,25.20
2022,07,25,11,04,25.30
2022,07,25,11,05,25.40
2022,07,25,11,06,25.50
2022,07,25,11,07,25.50
2022,07,25,11,08,25.60
2022,07,25,11,09,25.70
2022,07,25,11,10,25.70
2022,07,25,11,11,25.70
2022,07,25,11,12,25.70
2022,07,25,11,13,25.80
2022,07,25,11,14,25.80
2022,07,25,11,15,25.90
2022,07,25,11,16,25.90
2022,07,25,11,17,26.00
2022,07,25,11,18,26.00
2022,07,25,11,19,26.10
2022,07,25,11,20,26.10
2022,07,25,11,21,26.20
2022,07,25,11,22,26.20
2022,07,25,11,23,26.20
2022,07,25,11,24,26.30
2022,07,25,11,25,26.30
2022,07,25,11,26,26.30
2022,07,25,11,27,26.40
2022,07,25,11,28,26.40
2022,07,25,11,29,26.50
2022,07,25,11,30,26.60
2022,07,25,11,31,26.60
2022,07,25,11,32,26.60
2022,07,25,11,33,26.60
2022,07,25,11,34,26.60
2022,07,25,11,35,26.60
2022,07,25,11,36,26.70
2022,07,25,11,37,26.70
2022,07,25,11,38,26.70
2022,07,25,11,39,26.80
2022,07,25,11,40,26.70
2022,07,25,11,41,26.80
2022,07,25,11,42,26.80
2022,07,25,11,43,26.80
2022,07,25,11,44,26.80
2022,07,25,11,45,26.80
2022,07,25,11,46,26.90
2022,07,25,11,47,26.90
2022,07,25,11,48,26.90
2022,07,25,11,49,26.90
2022,07,25,11,50,26.90
2022,07,25,11,51,26.90
2022,07,25,11,52,26.90
2022,07,25,11,53,27.00
2022,07,25,11,54,27.00
2022,07,25,11,55,27.00
2022,07,25,11,56,27.00
2022,07,25,11,57,27.00
2022,07,25,11,58,27.00
2022,07,25,11,59,27.00
2022,07,25,12,00,27.00
2022,07,25,12,01,27.00
2022,07,25,12,02,26.90
2022,07,25,12,03,26.90
2022,07,25,12,04,26.80
2022,07,25,12,05,26.80
2022,07,25,12,06,26.80
2022,07,25,12,07,26.80
2022,07,25,12,08,26.70
2022,07,25,12,09,26.60
2022,07,25,12,10,26.60
2022,07,25,12,11,26.60
2022,07,25,12,12,26.50
2022,07,25,12,13,26.50
2022,07,25,12,14,26.50
2022,07,25,12,15,26.50
2022,07,25,12,16,26.40
2022,07,25,12,17,26.40
2022,07,25,12,18,26.40
2022,07,25,12,19,26.40
2022,07,25,12,20,26.50
2022,07,25,12,21,26.50
2022,07,25,12,22,26.60
2022,07,25,12,23,26.60
2022,07,25,12,24,26.60
2022,07,25,12,25,26.70
2022,07,25,12,26,26.70
2022,07,25,12,27,26.80
2022,07,25,12,28,26.80
2022,07,25,12,29,26.80
2022,07,25,12,30,26.90
2022,07,25,12,31,26.90
2022,07,25,12,32,26.90
2022,07,25,12,33,26.90
2022,07,25,12,34,26.90
2022,07,25,12,35,27.00
2022,07,25,12,36,27.00
2022,07,25,12,37,27.10
2022,07,25,12,38,27.20
2022,07,25,12,39,27.30
2022,07,25,12,40,27.30
2022,07,25,12,41,27.40
2022,07,25,12,42,27.40
2022,07,25,12,43,27.40
2022,07,25,12,44,27.50
2022,07,25,12,45,27.50
2022,07,25,12,46,27.60
2022,07,25,12,47,27.60
2022,07,25,12,48,27.60
2022,07,25,12,49,27.60
2022,07,25,12,50,27.60
2022,07,25,12,51,27.70
2022,07,25,12,52,27.70
2022,07,25,12,53,27.80
2022,07,25,12,54,27.80
2022,07,25,12,55,27.90
2022,07,25,12,56,27.90
2022,07,25,12,57,28.00
2022,07,25,12,58,28.00
2022,07,25,12,59,28.10
2022,07,25,13,00,28.10
2022,07,25,13,01,28.20
2022,07,25,13,02,28.20
2022,07,25,13,03,28.20
2022,07,25,13,04,28.30
2022,07,25,13,05,28.30
2022,07,25,13,06,28.40
2022,07,25,13,07,28.40
2022,07,25,13,08,28.50
2022,07,25,13,09,28.50
2022,07,25,13,10,28.60
2022,07,25,13,11,28.50
2022,07,25,13,12,28.50
2022,07,25,13,13,28.50
2022,07,25,13,14,28.40
2022,07,25,13,15,28.40
2022,07,25,13,16,28.30
2022,07,25,13,17,28.30
2022,07,25,13,18,28.30
2022,07,25,13,19,28.20
2022,07,25,13,20,28.10
2022,07,25,13,21,28.00
2022,07,25,13,22,27.90
2022,07,25,13,23,27.90
2022,07,25,13,24,27.80
2022,07,25,13,25,27.80
2022,07,25,13,26,27.80
2022,07,25,13,27,27.70
2022,07,25,13,28,27.80
2022,07,25,13,29,27.70
2022,07,25,13,30,27.80
2022,07,25,13,31,27.80
2022,07,25,13,32,27.80
2022,07,25,13,33,27.80
2022,07,25,13,34,27.70
2022,07,25,13,35,27.70
2022,07,25,13,36,27.60
2022,07,25,13,37,27.60
2022,07,25,13,38,27.50
2022,07,25,13,39,27.40
2022,07,25,13,40,27.40
2022,07,25,13,41,27.30
2022,07,25,13,42,27.20
2022,07,25,13,43,27.20
2022,07,25,13,44,27.20
2022,07,25,13,45,27.20
2022,07,25,13,46,27.20
2022,07,25,13,47,27.30
2022,07,25,13,48,27.30
2022,07,25,13,49,27.40
2022,07,25,13,50,27.50
2022,07,25,13,51,27.60
2022,07,25,13,52,27.60
2022,07,25,13,53,27.60
2022,07,25,13,54,27.70
2022,07,25,13,55,27.70
2022,07,25,13,56,27.70
2022,07,25,13,57,27.80
2022,07,25,13,58,27.80
2022,07,25,13,59,27.90
2022,07,25,14,00,27.90
2022,07,25,14,01,27.90
2022,07,25,14,02,28.00
2022,07,25,14,03,28.00
2022,07,25,14,04,27.90
2022,07,25,14,05,27.90
2022,07,25,14,06,27.90
2022,07,25,14,07,27.90
2022,07,25,14,08,27.90
2022,07,25,14,09,28.00
2022,07,25,14,10,28.00
2022,07,25,14,11,28.00
2022,07,25,14,12,28.00
2022,07,25,14,13,28.10
2022,07,25,14,14,28.10
2022,07,25,14,15,28.20
2022,07,25,14,16,28.20
2022,07,25,14,17,28.20
2022,07,25,14,18,28.30
2022,07,25,14,19,28.30
2022,07,25,14,20,28.40
2022,07,25,14,21,28.40
2022,07,25,14,22,28.40
2022,07,25,14,23,28.40
2022,07,25,14,24,28.40
2022,07,25,14,25,28.40
2022,07,25,14,26,28.40
2022,07,25,14,27,28.40
2022,07,25,14,28,28.50
2022,07,25,14,29,28.40
2022,07,25,14,30,28.40
2022,07,25,14,31,28.30
2022,07,25,14,32,28.30
2022,07,25,14,33,28.40
2022,07,25,14,34,28.40
2022,07,25,14,35,28.40
2022,07,25,14,36,28.40
2022,07,25,14,37,28.40
2022,07,25,14,38,28.40
2022,07,25,14,39,28.40
2022,07,25,14,40,28.40
2022,07,25,14,41,28.40
2022,07,25,14,42,28.40
2022,07,25,14,43,28.50
2022,07,25,14,44,28.50
2022,07,25,14,45,28.60
2022,07,25,14,46,28.60
2022,07,25,14,47,28.70
2022,07,25,14,48,28.70
2022,07,25,14,49,28.70
2022,07,25,14,50,28.80
2022,07,25,14,51,28.80
2022,07,25,14,52,28.80
2022,07,25,14,53,28.80
2022,07,25,14,54,28.80
2022,07,25,14,55,28.80
2022,07,25,14,56,28.80
2022,07,25,14,57,28.80
2022,07,25,14,58,28.70
2022,07,25,14,59,28.70
2022,07,25,15,00,28.60
2022,07,25,15,01,28.60
2022,07,25,15,02,28.50
2022,07,25,15,03,28.50
2022,07,25,15,04,28.50
2022,07,25,15,05,28.50
2022,07,25,15,06,28.50
2022,07,25,15,07,28.40
2022,07,25,15,08,28.40
2022,07,25,15,09,28.40
2022,07,25,15,10,28.40
2022,07,25,15,11,28.40
2022,07,25,15,12,28.30
2022,07,25,15,13,28.30
2022,07,25,15,14,28.30
2022,07,25,15,15,28.40
2022,07,25,15,16,28.40
2022,07,25,15,17,28.50
2022,07,25,15,18,28.50
2022,07,25,15,19,28.50
2022,07,25,15,20,28.50
2022,07,25,15,21,28.50
2022,07,25,15,22,28.50
2022,07,25,15,23,28.60
2022,07,25,15,24,28.60
2022,07,25,15,25,28.60
2022,07,25,15,26,28.60
2022,07,25,15,27,28.60
2022,07,25,15,28,28.70
2022,07,25,15,29,28.80
2022,07,25,15,30,28.90
2022,07,25,15,31,28.90
2022,07,25,15,32,29.00
2022,07,25,15,33,29.10
2022,07,25,15,34,29.10
2022,07,25,15,35,29.10
2022,07,25,15,36,29.10
2022,07,25,15,37,29.10
2022,07,25,15,38,29.10
2022,07,25,15,39,29.10
2022,07,25,15,40,29.10
2022,07,25,15,41,29.10
2022,07,25,15,42,29.10
2022,07,25,15,43,29.10
2022,07,25,15,44,29.10
2022,07,25,15,45,29.10
2022,07,25,15,46,29.10
2022,07,25,15,47,29.20
2022,07,25,15,48,29.20
2022,07,25,15,49,29.20
2022,07,25,15,50,29.30
2022,07,25,15,51,29.30
2022,07,25,15,52,29.30
2022,07,25,15,53,29.40
2022,07,25,15,54,29.40
2022,07,25,15,55,29.40
2022,07,25,15,56,29.50
2022,07,25,15,57,29.50
2022,07,25,15,58,29.60
2022,07,25,15,59,29.60
2022,07,25,16,00,29.70
2022,07,25,16,01,29.70
2022,07,25,16,02,29.70
2022,07,25,16,03,29.70
2022,07,25,16,04,29.70
2022,07,25,16,05,29.70
2022,07,25,16,06,29.70
2022,07,25,16,07,29.70
2022,07,25,16,08,29.70
2022,07,25,16,09,29.70
2022,07,25,16,10,29.80
2022,07,25,16,11,29.80
2022,07,25,16,12,29.90
2022,07,25,16,13,29.90
2022,07,25,16,14,29.90
2022,07,25,16,15,29.90
2022,07,25,16,16,30.00
2022,07,25,16,17,30.00
2022,07,25,16,18,30.10
2022,07,25,16,19,30.10
2022,07,25,16,20,30.10
2022,07,25,16,21,30.20
2022,07,25,16,22,30.20
2022,07,25,16,23,30.30
2022,07,25,16,24,30.30
2022,07,25,16,25,30.40
2022,07,25,16,26,30.40
2022,07,25,16,27,30.50
2022,07,25,16,28,30.50
2022,07,25,16,29,30.60
2022,07,25,16,30,30.60
2022,07,25,16,31,30.70
2022,07,25,16,32,30.70
2022,07,25,16,33,30.70
2022,07,25,16,34,30.70
2022,07,25,16,35,30.70
2022,07,25,16,36,30.70
2022,07,25,16,37,30.70
2022,07,25,16,38,30.70
2022,07,25,16,39,30.70
2022,07,25,16,40,30.70
2022,07,25,16,41,30.70
2022,07,25,16,42,30.70
2022,07,25,16,43,30.70
2022,07,25,16,44,30.80
2022,07,25,16,45,30.80
2022,07,25,16,46,30.80
2022,07,25,16,47,30.80
2022,07,25,16,48,30.90
2022,07,25,16,49,30.90
2022,07,25,16,50,30.90
2022,07,25,16,51,30.90
2022,07,25,16,52,31.00
2022,07,25,16,53,31.00
2022,07,25,16,54,31.10
2022,07,25,16,55,31.10
2022,07,25,16,56,31.10
2022,07,25,16,57,31.10
2022,07,25,16,58,31.10
2022,07,25,16,59,31.10
2022,07,25,17,00,31.10
2022,07,25,17,01,31.00
2022,07,25,17,02,31.00
2022,07,25,17,03,30.90
2022,07,25,17,04,30.80
2022,07,25,17,05,30.60
2022,07,25,17,06,30.60
2022,07,25,17,07,30.50
2022,07,25,17,08,30.40
2022,07,25,17,09,30.40
2022,07,25,17,10,30.30
2022,07,25,17,11,30.20
2022,07,25,17,12,30.20
2022,07,25,17,13,30.10
2022,07,25,17,14,30.10
2022,07,25,17,15,30.10
2022,07,25,17,16,30.10
2022,07,25,17,17,30.00
2022,07,25,17,18,30.00
2022,07,25,17,19,30.00